This is the latest recevied weather packets stored in our database for station/object F1DKL-13. If no packets are shown the sender has not sent any weather packets the latest 1 day(s).
| Time | Temp. | Humidity | Pressure | Rain* | Wind** | Luminosity | Snow |
|---|---|---|---|---|---|---|---|
| 1778090705 | 11.67° C | 50% | 1016.1 hPa | 0 mm | - | - | - |
| 1778089205 | 12.78° C | 47% | 1017.2 hPa | 0 mm | - | - | - |
| 1778088905 | 13.33° C | 47% | 1017.2 hPa | 0 mm | - | - | - |
| 1778087705 | 13.33° C | 44% | 1017.2 hPa | 0 mm | - | - | - |
| 1778085905 | 13.89° C | 44% | 1017.2 hPa | 0 mm | - | - | - |
| 1778085605 | 13.89° C | 44% | 1017.2 hPa | 0 mm | - | - | - |
| 1778084405 | 13.89° C | 43% | 1017.2 hPa | 0 mm | - | - | - |
| 1778081405 | 13.89° C | 48% | 1018.3 hPa | 0 mm | - | - | - |
| 1778081105 | 13.33° C | 47% | 1018.3 hPa | 0 mm | - | - | - |
| 1778080805 | 13.33° C | 48% | 1018.3 hPa | 0 mm | - | - | - |
| 1778080205 | 13.33° C | 47% | 1017.2 hPa | 0 mm | - | - | - |
| 1778079905 | 12.78° C | 47% | 1017.2 hPa | 0 mm | - | - | - |
| 1778079605 | 13.33° C | 48% | 1017.2 hPa | 0 mm | - | - | - |
| 1778079305 | 13.33° C | 49% | 1018.3 hPa | 0 mm | - | - | - |
| 1778079005 | 12.78° C | 49% | 1018.3 hPa | 0 mm | - | - | - |
| 1778078705 | 12.78° C | 49% | 1018.3 hPa | 0 mm | - | - | - |
| 1778078405 | 12.78° C | 48% | 1018.3 hPa | 0 mm | - | - | - |
| 1778078105 | 12.78° C | 48% | 1018.3 hPa | 0 mm | - | - | - |
| 1778077505 | 12.78° C | 45% | 1018.3 hPa | 0 mm | - | - | - |
| 1778076905 | 13.89° C | 41% | 1018.3 hPa | 0 mm | - | - | - |
| 1778076605 | 14.44° C | 39% | 1016.1 hPa | 0 mm | - | - | - |
| 1778076305 | 15° C | 38% | 1016.1 hPa | 0 mm | - | - | - |
| 1778076005 | 16.11° C | 36% | 1016.1 hPa | 0 mm | - | - | - |
| 1778075705 | 17.22° C | 38% | 1016.1 hPa | 0 mm | - | - | - |
| 1778075405 | 17.22° C | 37% | 1016.1 hPa | 0 mm | - | - | - |
* Rain latest hour (hover to see other rain measurements)
** Current wind speed in m/s (hover to see current wind gust speed)